| time (UTC) | temp F | wind direction | speed MPH | gust MPH | rain 1hr in | rain 24hr in | rain mn in | humidity % | barometer mb |
| 20260904062455 | 82 | 0 | 0.0 | 0.0 | 0.00 | 0.10 | 0.00 | 92 | 1008.6 |
| 20260904061554 | 82 | 0 | 0.0 | 0.0 | 0.00 | 0.10 | 0.00 | 92 | 1008.6 |
| 20260904060654 | 82 | 0 | 0.0 | 0.0 | 0.00 | 0.10 | 0.00 | 92 | 1008.6 |
| 20260904055755 | 82 | 0 | 0.0 | 0.0 | 0.00 | 0.10 | 0.00 | 92 | 1008.6 |
| 20260904053954 | 82 | 179 | 1.0 | 10.0 | 0.00 | 0.10 | 0.00 | 92 | 1008.6 |
| 20260904053055 | 82 | 160 | 1.0 | 6.0 | 0.00 | 0.10 | 0.00 | 92 | 1008.6 |
| 20260904050355 | 83 | 0 | 0.0 | 0.0 | 0.00 | 0.10 | 0.00 | 92 | 1008.6 |
| 20260904044555 | 83 | 0 | 0.0 | 0.0 | 0.00 | 0.10 | 0.10 | 91 | 1008.6 |
| 20260904043655 | 83 | 156 | 0.0 | 5.0 | 0.00 | 0.10 | 0.10 | 91 | 1008.6 |
| 20260904040955 | 83 | 171 | 1.0 | 6.0 | 0.00 | 0.10 | 0.10 | 91 | 1008.6 |
| 20260904040054 | 83 | 171 | 0.0 | 5.0 | 0.00 | 0.10 | 0.10 | 91 | 1008.6 |
| 20260904035154 | 83 | 0 | 0.0 | 0.0 | 0.00 | 0.10 | 0.10 | 91 | 1008.6 |
| 20260904034254 | 83 | 166 | 0.0 | 1.0 | 0.00 | 0.10 | 0.10 | 91 | 1008.7 |
| 20260904033355 | 83 | 154 | 0.0 | 7.0 | 0.00 | 0.10 | 0.10 | 91 | 1008.8 |
| 20260904032454 | 83 | 166 | 0.0 | 4.0 | 0.00 | 0.10 | 0.10 | 91 | 1008.8 |
| 20260904031554 | 83 | 174 | 1.0 | 8.0 | 0.00 | 0.10 | 0.10 | 91 | 1008.7 |
| 20260904030654 | 83 | 0 | 0.0 | 0.0 | 0.00 | 0.10 | 0.10 | 91 | 1008.7 |
| 20260904025754 | 83 | 0 | 0.0 | 0.0 | 0.00 | 0.10 | 0.10 | 91 | 1008.6 |
| 20260904024854 | 83 | 0 | 0.0 | 0.0 | 0.00 | 0.10 | 0.10 | 91 | 1008.6 |
| 20260904023955 | 83 | 0 | 0.0 | 0.0 | 0.00 | 0.10 | 0.10 | 91 | 1008.6 |
| 20260904023054 | 83 | 0 | 0.0 | 0.0 | 0.00 | 0.10 | 0.10 | 91 | 1008.3 |
| 20260904022154 | 83 | 172 | 0.0 | 7.0 | 0.00 | 0.10 | 0.10 | 91 | 1008.3 |
| 20260904021254 | 83 | 166 | 0.0 | 4.0 | 0.00 | 0.10 | 0.10 | 91 | 1008.1 |
| 20260904020354 | 83 | 166 | 0.0 | 4.0 | 0.00 | 0.10 | 0.10 | 91 | 1008.0 |
| 20260904015454 | 83 | 165 | 0.0 | 4.0 | 0.00 | 0.10 | 0.10 | 90 | 1008.0 |
| 20260904014554 | 83 | 165 | 0.0 | 4.0 | 0.00 | 0.10 | 0.10 | 90 | 1008.0 |
| 20260904013655 | 83 | 175 | 0.0 | 6.0 | 0.00 | 0.10 | 0.10 | 90 | 1008.0 |
| 20260904012754 | 83 | 164 | 0.0 | 6.0 | 0.00 | 0.10 | 0.10 | 90 | 1007.9 |
| 20260904011854 | 83 | 80 | 0.0 | 3.0 | 0.00 | 0.10 | 0.10 | 91 | 1007.7 |
| 20260904010954 | 83 | 0 | 0.0 | 0.0 | 0.00 | 0.10 | 0.10 | 91 | 1007.7 |
| 20260904010054 | 82 | 113 | 0.0 | 3.0 | 0.00 | 0.10 | 0.10 | 90 | 1007.8 |
| 20260904005155 | 82 | 0 | 0.0 | 0.0 | 0.00 | 0.10 | 0.10 | 90 | 1007.8 |
| 20260904004254 | 82 | 0 | 0.0 | 0.0 | 0.00 | 0.10 | 0.10 | 91 | 1007.6 |
| 20260904003354 | 82 | 0 | 0.0 | 0.0 | 0.00 | 0.10 | 0.10 | 91 | 1007.8 |
| 20260904002454 | 82 | 0 | 0.0 | 0.0 | 0.00 | 0.10 | 0.10 | 91 | 1007.8 |
| 20260904001555 | 82 | 0 | 0.0 | 0.0 | 0.00 | 0.10 | 0.10 | 90 | 1008.0 |
| 20260904000654 | 82 | 0 | 0.0 | 0.0 | 0.00 | 0.10 | 0.10 | 90 | 1008.0 |
| 20260903235754 | 82 | 0 | 0.0 | 0.0 | 0.00 | 0.10 | 0.10 | 91 | 1008.0 |
| 20260903234854 | 82 | 0 | 0.0 | 0.0 | 0.00 | 0.10 | 0.10 | 91 | 1008.0 |
| 20260903233054 | 81 | 0 | 0.0 | 0.0 | 0.00 | 0.10 | 0.10 | 90 | 1008.0 |
| 20260903232154 | 81 | 0 | 0.0 | 0.0 | 0.00 | 0.10 | 0.10 | 91 | 1008.0 |
| 20260903231255 | 81 | 0 | 0.0 | 0.0 | 0.00 | 0.10 | 0.10 | 91 | 1008.0 |
| 20260903230354 | 81 | 0 | 0.0 | 0.0 | 0.00 | 0.10 | 0.10 | 91 | 1008.1 |
| 20260903225454 | 80 | 0 | 0.0 | 0.0 | 0.00 | 0.10 | 0.10 | 91 | 1008.1 |
| 20260903224554 | 80 | 0 | 0.0 | 0.0 | 0.00 | 0.10 | 0.10 | 90 | 1008.0 |
| 20260903223654 | 80 | 0 | 0.0 | 0.0 | 0.00 | 0.10 | 0.10 | 91 | 1008.0 |
| 20260903222754 | 80 | 0 | 0.0 | 0.0 | 0.00 | 0.10 | 0.10 | 92 | 1008.1 |
| 20260903221854 | 80 | 0 | 0.0 | 0.0 | 0.00 | 0.10 | 0.10 | 93 | 1008.2 |
| 20260903220954 | 79 | 0 | 0.0 | 0.0 | 0.00 | 0.10 | 0.10 | 93 | 1008.2 |
| 20260903220054 | 79 | 84 | 0.0 | 4.0 | 0.00 | 0.10 | 0.10 | 93 | 1008.5 |
| 20260903213354 | 79 | 0 | 0.0 | 0.0 | 0.00 | 0.10 | 0.10 | 95 | 1009.1 |
| 20260903212454 | 79 | 0 | 0.0 | 0.0 | 0.00 | 0.10 | 0.10 | 97 | 1009.1 |
| 20260903211554 | 80 | 0 | 0.0 | 0.0 | 0.00 | 0.10 | 0.10 | 97 | 1009.4 |
| 20260903203954 | 80 | 0 | 0.0 | 0.0 | 0.00 | 0.10 | 0.10 | 98 | 1009.3 |
| 20260903203055 | 79 | 0 | 0.0 | 0.0 | 0.00 | 0.10 | 0.10 | 97 | 1008.7 |
| 20260903202154 | 79 | 0 | 0.0 | 0.0 | 0.00 | 0.10 | 0.10 | 97 | 1008.7 |
| 20260903201254 | 79 | 0 | 0.0 | 0.0 | 0.00 | 0.10 | 0.10 | 97 | 1009.1 |
| 20260903200354 | 80 | 0 | 0.0 | 0.0 | 0.00 | 0.10 | 0.10 | 98 | 1009.1 |
| 20260903195454 | 79 | 0 | 0.0 | 0.0 | 0.00 | 0.10 | 0.10 | 98 | 1009.1 |
| 20260903192754 | 79 | 0 | 0.0 | 0.0 | 0.03 | 0.10 | 0.10 | 97 | 1009.4 |
| 20260903190954 | 78 | 0 | 0.0 | 0.0 | 0.10 | 0.10 | 0.10 | 95 | 1009.1 |
| 20260903190054 | 79 | 6 | 0.0 | 5.0 | 0.10 | 0.10 | 0.10 | 94 | 1009.5 |
| 20260903185154 | 80 | 4 | 1.0 | 10.0 | 0.10 | 0.10 | 0.10 | 93 | 1009.5 |
| 20260903183354 | 82 | 295 | 0.0 | 5.0 | 0.09 | 0.09 | 0.09 | 89 | 1010.0 |
| 20260903181554 | 84 | 297 | 1.0 | 8.0 | 0.00 | 0.00 | 0.00 | 83 | 1009.7 |
| 20260903180654 | 84 | 314 | 1.0 | 9.0 | 0.00 | 0.00 | 0.00 | 81 | 1009.7 |
| 20260903174854 | 86 | 329 | 2.0 | 12.0 | 0.00 | 0.00 | 0.00 | 75 | 1010.2 |
| 20260903172154 | 90 | 0 | 0.0 | 0.0 | 0.00 | 0.00 | 0.00 | 79 | 1009.7 |
| 20260903170354 | 90 | 0 | 0.0 | 0.0 | 0.00 | 0.00 | 0.00 | 80 | 1010.1 |
| 20260903165454 | 90 | 0 | 0.0 | 0.0 | 0.00 | 0.00 | 0.00 | 82 | 1010.1 |
| 20260903164554 | 89 | 0 | 0.0 | 0.0 | 0.00 | 0.00 | 0.00 | 81 | 1010.2 |
| 20260903163654 | 88 | 0 | 0.0 | 0.0 | 0.00 | 0.00 | 0.00 | 83 | 1010.2 |
| 20260903162754 | 87 | 0 | 0.0 | 0.0 | 0.00 | 0.00 | 0.00 | 86 | 1010.2 |
| 20260903161854 | 86 | 0 | 0.0 | 0.0 | 0.00 | 0.00 | 0.00 | 85 | 1010.2 |
| 20260903160053 | 85 | 0 | 0.0 | 0.0 | 0.00 | 0.00 | 0.00 | 90 | 1010.1 |
| 20260903155153 | 84 | 0 | 0.0 | 0.0 | 0.00 | 0.00 | 0.00 | 90 | 1010.1 |
| 20260903154253 | 84 | 0 | 0.0 | 0.0 | 0.00 | 0.00 | 0.00 | 91 | 1010.1 |
| 20260903153354 | 84 | 0 | 0.0 | 0.0 | 0.00 | 0.00 | 0.00 | 93 | 1010.1 |
| 20260903152454 | 83 | 0 | 0.0 | 0.0 | 0.00 | 0.00 | 0.00 | 94 | 1010.1 |
| 20260903151554 | 83 | 0 | 0.0 | 0.0 | 0.00 | 0.00 | 0.00 | 94 | 1010.1 |
| 20260903145753 | 83 | 0 | 0.0 | 0.0 | 0.00 | 0.00 | 0.00 | 93 | 1010.1 |
| 20260903144854 | 83 | 0 | 0.0 | 0.0 | 0.00 | 0.00 | 0.00 | 93 | 1010.5 |
| 20260903143954 | 83 | 0 | 0.0 | 0.0 | 0.00 | 0.00 | 0.00 | 93 | 1010.5 |
| 20260903143054 | 83 | 0 | 0.0 | 0.0 | 0.00 | 0.00 | 0.00 | 92 | 1010.4 |
| 20260903142154 | 83 | 0 | 0.0 | 0.0 | 0.00 | 0.00 | 0.00 | 91 | 1010.4 |
| 20260903141254 | 83 | 0 | 0.0 | 0.0 | 0.00 | 0.00 | 0.00 | 91 | 1010.3 |
| 20260903140353 | 83 | 0 | 0.0 | 0.0 | 0.00 | 0.00 | 0.00 | 91 | 1010.3 |
| 20260903135454 | 82 | 0 | 0.0 | 0.0 | 0.00 | 0.00 | 0.00 | 91 | 1010.3 |
| 20260903132754 | 82 | 0 | 0.0 | 0.0 | 0.00 | 0.00 | 0.00 | 91 | 1010.2 |
| 20260903130954 | 82 | 0 | 0.0 | 0.0 | 0.00 | 0.00 | 0.00 | 92 | 1010.0 |
| 20260903130053 | 82 | 0 | 0.0 | 0.0 | 0.00 | 0.00 | 0.00 | 92 | 1010.0 |
| 20260903125154 | 82 | 0 | 0.0 | 0.0 | 0.00 | 0.00 | 0.00 | 92 | 1010.0 |
| 20260903124254 | 82 | 0 | 0.0 | 0.0 | 0.00 | 0.00 | 0.00 | 92 | 1009.6 |
| 20260903123354 | 82 | 201 | 0.0 | 6.0 | 0.00 | 0.00 | 0.00 | 92 | 1009.4 |
| 20260903122453 | 82 | 0 | 0.0 | 0.0 | 0.00 | 0.00 | 0.00 | 93 | 1009.4 |
| 20260903121553 | 82 | 0 | 0.0 | 0.0 | 0.00 | 0.00 | 0.00 | 92 | 1009.2 |
| 20260903120654 | 82 | 0 | 0.0 | 0.0 | 0.00 | 0.00 | 0.00 | 92 | 1009.2 |
| 20260903115753 | 82 | 0 | 0.0 | 0.0 | 0.00 | 0.00 | 0.00 | 92 | 1009.2 |
| 20260903113954 | 82 | 0 | 0.0 | 0.0 | 0.00 | 0.00 | 0.00 | 92 | 1009.1 |
| 20260903111254 | 83 | 0 | 0.0 | 0.0 | 0.00 | 0.00 | 0.00 | 90 | 1009.2 |
| 20260903110353 | 83 | 206 | 1.0 | 6.0 | 0.00 | 0.00 | 0.00 | 89 | 1009.1 |
| 20260903105454 | 83 | 196 | 1.0 | 11.0 | 0.00 | 0.00 | 0.00 | 89 | 1009.1 |
| 20260903104554 | 83 | 193 | 1.0 | 11.0 | 0.00 | 0.00 | 0.00 | 89 | 1009.1 |
| 20260903103654 | 83 | 195 | 1.0 | 10.0 | 0.00 | 0.00 | 0.00 | 88 | 1009.1 |
| 20260903102754 | 83 | 194 | 1.0 | 6.0 | 0.00 | 0.00 | 0.00 | 89 | 1009.0 |
| 20260903101853 | 84 | 181 | 1.0 | 8.0 | 0.00 | 0.00 | 0.00 | 89 | 1009.0 |
| 20260903100953 | 84 | 205 | 1.0 | 7.0 | 0.00 | 0.00 | 0.00 | 89 | 1009.0 |
| 20260903100053 | 84 | 213 | 1.0 | 7.0 | 0.00 | 0.00 | 0.00 | 89 | 1008.9 |
| 20260903095154 | 84 | 197 | 1.0 | 7.0 | 0.00 | 0.00 | 0.00 | 89 | 1008.9 |
| 20260903094253 | 84 | 175 | 1.0 | 7.0 | 0.00 | 0.00 | 0.00 | 89 | 1008.9 |
| 20260903093353 | 84 | 170 | 1.0 | 7.0 | 0.00 | 0.00 | 0.00 | 88 | 1009.0 |
| 20260903092454 | 84 | 166 | 0.0 | 6.0 | 0.00 | 0.00 | 0.00 | 88 | 1009.0 |
| 20260903091553 | 84 | 153 | 0.0 | 4.0 | 0.00 | 0.00 | 0.00 | 88 | 1008.9 |
| 20260903090654 | 84 | 183 | 1.0 | 9.0 | 0.00 | 0.00 | 0.00 | 88 | 1008.9 |
| 20260903085754 | 84 | 194 | 1.0 | 7.0 | 0.00 | 0.00 | 0.00 | 88 | 1008.9 |
| 20260903084853 | 84 | 213 | 0.0 | 5.0 | 0.00 | 0.00 | 0.00 | 88 | 1008.7 |
| 20260903083953 | 84 | 177 | 1.0 | 7.0 | 0.00 | 0.00 | 0.00 | 88 | 1008.7 |
| 20260903083054 | 84 | 194 | 1.0 | 10.0 | 0.00 | 0.00 | 0.00 | 88 | 1008.8 |
| 20260903082153 | 84 | 195 | 1.0 | 5.0 | 0.00 | 0.00 | 0.00 | 88 | 1008.8 |
| 20260903080353 | 84 | 200 | 1.0 | 6.0 | 0.00 | 0.00 | 0.00 | 88 | 1008.7 |
| 20260903075454 | 84 | 198 | 0.0 | 6.0 | 0.00 | 0.00 | 0.00 | 88 | 1008.7 |
| 20260903074553 | 84 | 203 | 2.0 | 9.0 | 0.00 | 0.00 | 0.00 | 88 | 1008.7 |
| 20260903071854 | 84 | 186 | 1.0 | 7.0 | 0.00 | 0.00 | 0.00 | 87 | 1009.0 |
| 20260903070054 | 84 | 187 | 1.0 | 7.0 | 0.00 | 0.00 | 0.00 | 87 | 1009.2 |
| 20260903065153 | 84 | 191 | 1.0 | 7.0 | 0.00 | 0.00 | 0.00 | 87 | 1009.2 |
| 20260903064254 | 84 | 183 | 1.0 | 9.0 | 0.00 | 0.00 | 0.00 | 87 | 1009.2 |